TimeEET,TemperatureF,Dew PointF,Humidity,Sea Level PressureIn,VisibilityMPH,Wind Direction,Wind SpeedMPH,Gust SpeedMPH,PrecipitationIn,Events,Conditions,WindDirDegrees,DateUTC
12:20 AM,64.4,57.2,77,30.09,-9999.0,NNE,6.9,-,N/A,Rain,Light Rain,20,2013-10-31 22:20:00
12:50 AM,62.6,55.4,77,30.09,-9999.0,WNW,6.9,-,N/A,Rain,Light Rain,300,2013-10-31 22:50:00
1:20 AM,62.6,57.2,82,30.09,-9999.0,NNW,8.1,-,N/A,Rain,Light Rain,340,2013-10-31 23:20:00
1:50 AM,64.4,59.0,83,30.09,-9999.0,North,11.5,-,N/A,,Unknown,360,2013-10-31 23:50:00
2:20 AM,64.4,59.0,83,30.09,-9999.0,NNW,9.2,-,N/A,,Unknown,330,2013-11-01 00:20:00
2:50 AM,62.6,57.2,82,30.09,-9999.0,Variable,2.3,-,N/A,,Unknown,0,2013-11-01 00:50:00
3:20 AM,60.8,55.4,82,30.09,-9999.0,WSW,4.6,-,N/A,Rain,Light Rain,250,2013-11-01 01:20:00
3:50 AM,60.8,55.4,82,30.09,-9999.0,WNW,5.8,-,N/A,Rain,Light Rain,300,2013-11-01 01:50:00
4:20 AM,60.8,57.2,88,30.09,-9999.0,North,4.6,-,N/A,Rain,Light Rain,350,2013-11-01 02:20:00
4:50 AM,60.8,57.2,88,30.09,-9999.0,West,4.6,-,N/A,Rain,Light Rain,280,2013-11-01 02:50:00
5:20 AM,62.6,59.0,88,30.09,-9999.0,NNE,10.4,-,N/A,Rain,Light Rain,30,2013-11-01 03:20:00
5:50 AM,62.6,57.2,82,30.09,-9999.0,WSW,6.9,-,N/A,Rain,Light Rain,250,2013-11-01 03:50:00
6:20 AM,59.0,53.6,82,30.09,-9999.0,WNW,6.9,-,N/A,,Unknown,300,2013-11-01 04:20:00
6:50 AM,60.8,57.2,88,30.09,-9999.0,West,5.8,-,N/A,,Unknown,280,2013-11-01 04:50:00
7:20 AM,60.8,57.2,88,30.09,6.2,WNW,5.8,-,N/A,,Scattered Clouds,290,2013-11-01 05:20:00
7:50 AM,64.4,59.0,83,30.12,6.2,SSW,4.6,-,N/A,,Scattered Clouds,210,2013-11-01 05:50:00
8:20 AM,64.4,59.0,83,30.12,6.2,SSW,4.6,-,N/A,,Scattered Clouds,210,2013-11-01 06:20:00
8:50 AM,66.2,57.2,73,30.12,6.2,NNW,5.8,-,N/A,,Scattered Clouds,340,2013-11-01 06:50:00
9:20 AM,66.2,57.2,73,30.12,6.2,NNW,5.8,-,N/A,,Scattered Clouds,340,2013-11-01 07:20:00
9:50 AM,68.0,57.2,68,30.12,6.2,North,17.3,-,N/A,,Partly Cloudy,360,2013-11-01 07:50:00
10:20 AM,68.0,57.2,68,30.12,6.2,North,17.3,-,N/A,,Partly Cloudy,360,2013-11-01 08:20:00
10:50 AM,69.8,55.4,60,30.12,6.2,North,17.3,-,N/A,,Partly Cloudy,360,2013-11-01 08:50:00
11:20 AM,69.8,55.4,60,30.12,6.2,North,17.3,-,N/A,,Partly Cloudy,360,2013-11-01 09:20:00
11:50 AM,69.8,55.4,60,30.12,6.2,North,20.7,-,N/A,,Partly Cloudy,350,2013-11-01 09:50:00
12:20 PM,69.8,55.4,60,30.12,6.2,North,20.7,-,N/A,,Partly Cloudy,350,2013-11-01 10:20:00
12:50 PM,69.8,55.4,60,30.12,6.2,North,17.3,-,N/A,,Partly Cloudy,350,2013-11-01 10:50:00
1:20 PM,69.8,55.4,60,30.12,6.2,North,17.3,-,N/A,,Partly Cloudy,350,2013-11-01 11:20:00
1:50 PM,69.8,55.4,60,30.09,6.2,North,16.1,-,N/A,,Partly Cloudy,350,2013-11-01 11:50:00
2:20 PM,69.8,55.4,60,30.09,6.2,North,17.3,-,N/A,,Partly Cloudy,350,2013-11-01 12:20:00
2:50 PM,69.8,55.4,60,30.09,6.2,NNW,16.1,-,N/A,,Partly Cloudy,340,2013-11-01 12:50:00
3:20 PM,69.8,55.4,60,30.09,6.2,NNW,17.3,-,N/A,,Partly Cloudy,340,2013-11-01 13:20:00
3:50 PM,68.0,55.4,64,30.09,6.2,North,15.0,-,N/A,,Partly Cloudy,350,2013-11-01 13:50:00
4:20 PM,68.0,55.4,64,30.09,6.2,North,15.0,-,N/A,,Partly Cloudy,350,2013-11-01 14:20:00
4:50 PM,66.2,55.4,68,30.12,6.2,NNW,16.1,-,N/A,,Partly Cloudy,340,2013-11-01 14:50:00
5:20 PM,66.2,55.4,68,30.12,6.2,NNW,15.0,-,N/A,,Scattered Clouds,340,2013-11-01 15:20:00
5:50 PM,66.2,55.4,68,30.12,6.2,NNW,17.3,-,N/A,,Scattered Clouds,340,2013-11-01 15:50:00
6:20 PM,64.4,55.4,73,30.12,6.2,NNW,17.3,-,N/A,,Scattered Clouds,340,2013-11-01 16:20:00
6:50 PM,64.4,55.4,73,30.12,6.2,NNW,10.4,-,N/A,,Scattered Clouds,330,2013-11-01 16:50:00
7:20 PM,64.4,55.4,73,30.12,6.2,NNW,10.4,-,N/A,,Scattered Clouds,330,2013-11-01 17:20:00
7:50 PM,64.4,55.4,73,30.12,6.2,NNW,9.2,-,N/A,,Scattered Clouds,330,2013-11-01 17:50:00
8:20 PM,62.6,53.6,72,30.12,6.2,NW,5.8,-,N/A,,Scattered Clouds,310,2013-11-01 18:20:00
8:50 PM,62.6,55.4,77,30.15,6.2,NNW,5.8,-,N/A,,Scattered Clouds,330,2013-11-01 18:50:00
9:20 PM,64.4,55.4,73,30.15,-9999.0,NNW,11.5,-,N/A,,Unknown,340,2013-11-01 19:20:00
9:50 PM,62.6,53.6,72,30.15,-9999.0,WNW,6.9,-,N/A,,Unknown,290,2013-11-01 19:50:00
10:20 PM,62.6,53.6,72,30.15,-9999.0,WNW,4.6,-,N/A,,Unknown,300,2013-11-01 20:20:00
10:50 PM,62.6,55.4,77,30.15,-9999.0,NW,9.2,-,N/A,,Unknown,310,2013-11-01 20:50:00
11:20 PM,62.6,55.4,77,30.12,-9999.0,NNW,9.2,-,N/A,,Unknown,330,2013-11-01 21:20:00
11:50 PM,60.8,53.6,77,30.12,-9999.0,WNW,6.9,-,N/A,,Unknown,290,2013-11-01 21:50:00